Tracking 21076 objects as of 7-Aug-2020
HD Live streaming from Space Station
objects crossing your sky now

METEOR 2-5 DEB

Track METEOR 2-5 DEB now!
10-day predictions


NORAD ID: 36899
Int'l Code: 1979-095AQ
Perigee: 524.7 km
Apogee: 534.6 km
Inclination: 81.1 °
Period: 95.1 minutes
Semi major axis: 6900 km
RCS: 0.0161 m2 (small)
Launch date: October 31, 1979
Source: Commonwealth of Independent States (former USSR) (CIS)
Launch site: PLESETSK MISSILE AND SPACE COMPLEX (PKMTR)

Note: This is SATELLITE DEBRIS
aabbcc
Your satellite tracking list
Your tracking list is empty




NASA's NSSDC Master Catalog

Two Line Element Set (TLE):
1 36899U 79095AQ  20219.85113337  .00009944  00000-0  53849-3 0  9998
2 36899  81.0656 260.4093 0007146 301.2912  58.7615 15.14503412925153
Source of the keplerian elements: AFSPC